Wetbulb
40.22 42.40 44.43 44.82 45.71 45.83 42.40 41.66 41.47 42.50 43.28 47.24 51.30 55.82 57.41 56.74 56.41 56.69 57.69 58.26 61.76 63.68 63.96 65.07 66.80 68.04 68.35 68.36 67.49 66.91 67.14 66.94 67.23 66.51 67.04 66.31 66.00 66.06 65.97 65.57 65.11 64.60 64.12 63.78
38.94 44.63 46.05 44.85 46.37 47.03 46.51 44.97 45.94 46.49 46.35 50.24 53.08 54.46 55.26 56.47 54.94 55.50 56.85 58.65 61.35 64.87 65.15 65.46 67.07 67.94 68.37 67.69 67.20 66.82 66.78 66.67 67.27 66.82 66.76 66.78 66.27 65.95 66.06 65.32 64.28 63.91 63.16 62.45
38.42 43.58 43.61 39.87 42.84 45.80 48.07 48.09 48.60 44.97 48.44 51.30 52.59 54.75 55.03 55.56 55.36 55.88 56.75 59.90 63.82 65.79 65.54 66.00 67.47 68.32 67.67 67.90 67.54 66.58 66.33 66.82 67.16 67.67 66.58 66.33 66.39 66.08 65.76 64.87 64.11 63.53 62.15 61.12
39.29 39.37 34.15 42.53 50.37 50.72 50.81 52.66 53.08 52.56 52.40 52.29 51.70 54.09 56.39 56.20 55.89 56.73 58.87 61.57 65.83 66.10 65.69 66.47 66.91 67.11 67.45 67.61 67.23 66.33 65.58 66.02 66.76 67.03 66.94 66.41 66.16 65.80 65.96 65.82 65.01 63.88 61.72 59.79
37.61 36.07 41.63 47.27 52.73 51.98 49.93 46.96 52.81 51.79 53.43 54.80 55.14 55.70 55.08 59.98 58.57 58.35 59.78 62.57 67.23 66.60 66.49 66.09 66.35 66.80 67.00 66.73 66.51 65.98 65.26 65.24 65.98 66.85 66.41 65.98 65.92 65.98 66.16 65.95 65.79 63.35 62.56 60.83
37.90 34.71 34.99 46.65 53.07 55.38 54.83 43.31 52.62 53.57 53.95 53.70 55.92 49.56 52.05 62.74 64.91 59.94 59.90 65.17 67.51 66.59 65.70 65.86 66.15 67.16 66.44 65.77 65.37 64.93 65.04 65.38 66.00 66.21 65.53 64.81 64.33 63.90 64.04 64.47 64.25 64.48 61.70 60.46
35.23 35.42 40.10 50.95 52.69 54.09 42.82 42.68 51.96 54.54 54.94 55.17 53.18 55.35 61.02 64.48 64.27 63.97 64.53 65.99 66.47 65.69 65.20 65.60 66.22 66.62 65.59 65.40 65.14 65.37 65.10 64.64 64.55 64.71 64.37 64.64 63.58 63.35 62.71 63.11 63.97 64.12 62.76 61.81
35.92 34.01 34.16 52.35 51.67 47.53 49.20 51.68 53.36 54.68 55.85 56.81 57.27 59.07 61.77 63.73 63.95 64.10 63.69 64.13 64.48 64.14 63.71 64.33 65.47 65.23 63.66 63.66 63.37 63.85 63.47 62.76 62.43 62.04 62.66 63.58 63.83 63.86 62.78 62.35 63.02 63.26 63.71 61.94
43.93 43.12 49.42 52.54 50.29 52.63 52.43 52.83 54.53 56.58 57.46 58.32 57.91 58.41 59.10 61.85 63.39 63.83 63.65 63.68 64.15 64.72 64.59 64.15 63.52 64.54 63.37 63.89 63.44 62.59 61.39 62.09 62.77 63.00 62.48 62.31 63.15 63.72 62.67 61.91 61.45 62.36 61.78 61.72
44.97 48.68 50.54 52.90 53.37 53.34 53.98 53.39 54.51 56.09 57.10 57.05 56.98 58.04 58.29 59.00 62.71 63.28 62.93 62.79 63.34 63.40 63.70 63.60 63.87 64.06 64.30 64.22 64.46 63.12 61.88 62.84 63.07 62.73 62.21 61.43 60.61 60.49 60.49 60.81 61.76 62.36 63.34 62.88
45.70 46.58 48.68 52.72 52.62 53.13 53.78 55.94 55.89 57.19 57.35 56.18 55.97 57.48 58.14 57.38 60.48 63.34 62.89 63.68 64.24 63.52 62.62 63.08 63.30 62.80 63.56 63.95 64.75 64.07 63.40 62.81 62.08 61.83 61.53 60.71 58.85 58.82 58.50 58.80 57.80 59.43 59.22 59.97
40.82 46.83 49.02 49.45 52.72 54.00 55.10 54.55 54.68 54.72 54.84 56.88 58.55 57.04 58.93 58.58 59.14 62.97 62.75 62.49 62.19 61.51 61.58 60.95 61.37 60.89 61.14 61.65 61.91 61.44 60.57 60.26 59.85 60.17 59.85 59.09 57.07 57.56 51.62 50.02 46.80 44.99 43.17 46.62
47.08 51.59 52.29 53.38 54.62 55.38 55.47 54.55 56.27 57.05 56.92 55.79 57.23 57.86 58.15 62.08 61.04 61.83 61.77 60.74 60.38 60.70 60.98 60.80 60.36 60.15 60.57 60.41 60.64 60.18 59.30 59.30 59.03 57.51 59.33 58.57 57.65 57.15 57.04 55.65 45.48 43.54 42.09 42.05
51.65 52.33 50.21 52.85 51.22 54.85 55.06 56.05 57.96 58.10 57.79 58.41 58.67 57.57 59.20 58.60 59.98 60.15 60.24 61.65 61.70 61.32 60.86 60.58 60.34 60.12 60.09 60.59 60.38 59.62 58.96 52.72 57.95 58.18 58.25 58.39 58.53 58.18 57.53 57.08 56.65 57.30 47.05 44.74
53.47 53.67 51.73 52.36 53.05 52.87 54.09 55.81 55.95 55.91 57.53 57.03 58.93 58.65 59.23 58.47 58.41 59.22 60.62 60.22 59.88 59.90 59.93 60.48 59.50 57.50 59.46 61.28 60.13 59.54 58.64 58.49 58.37 58.19 57.82 56.48 57.62 57.72 57.65 57.58 57.31 57.64 58.26 49.63
50.39 51.09 52.06 51.78 52.33 53.38 54.25 55.67 54.60 54.72 56.70 57.79 58.10 57.63 58.91 58.89 58.95 58.63 58.29 58.32 55.71 54.72 56.15 56.45 55.87 56.02 56.74 60.14 60.85 60.14 59.84 56.35 56.63 58.84 58.59 58.17 57.89 57.71 57.75 57.48 57.49 57.55 57.42 57.77
45.98 48.90 50.92 51.14 52.50 53.63 53.89 54.25 54.33 55.25 56.46 57.10 57.19 56.56 56.49 56.46 56.34 55.20 54.19 54.80 54.78 54.28 54.64 54.35 53.97 54.66 55.59 55.11 55.43 56.18 57.53 58.76 57.11 59.23 59.00 59.27 58.99 58.45 58.37 57.88 57.63 57.84 57.96 57.62
52.31 52.73 53.11 53.09 53.27 53.16 54.09 54.79 54.86 54.84 54.48 54.76 54.72 54.25 53.82 53.80 53.13 52.70 52.81 52.69 52.07 51.33 51.18 51.82 54.76 53.74 53.74 54.27 54.92 54.09 54.21 55.16 56.88 57.55 58.39 58.85 59.19 58.93 58.67 58.46 58.66 58.46 59.08 58.59
53.64 54.53 54.54 53.79 53.10 54.16 55.49 55.37 55.33 55.41 55.57 54.72 53.39 52.21 52.61 52.41 52.40 52.30 51.34 50.59 49.97 49.47 50.13 51.08 53.58 52.13 52.07 52.82 54.72 53.62 53.00 53.49 54.17 55.17 56.60 55.75 57.83 58.57 58.32 58.15 57.90 57.51 55.09 53.78
52.95 53.87 53.73 53.80 54.48 53.98 53.89 54.70 54.68 53.90 53.90 53.25 52.02 50.76 49.94 50.29 51.06 50.96 49.72 48.33 49.17 49.85 51.43 51.56 51.94 51.94 52.39 52.92 54.28 53.57 53.13 52.60 52.90 54.40 55.85 56.25 57.25 57.70 57.36 51.93 53.47 53.52 53.52 53.78
52.59 53.15 53.22 53.80 53.78 53.96 53.18 52.38 51.83 51.04 51.31 51.35 50.16 49.02 48.50 48.97 49.54 49.14 48.33 48.66 50.74 52.24 52.36 53.07 53.08 53.60 54.59 55.51 54.78 53.88 52.95 54.24 54.42 53.61 53.83 55.11 55.87 54.96 53.64 53.33 53.03 52.89 53.01 53.31
51.35 52.36 52.16 52.54 52.14 51.52 51.88 51.68 50.94 49.91 49.29 48.89 48.92 48.57 47.88 47.41 47.88 49.32 50.72 50.75 52.39 50.90 52.28 51.47 51.40 53.18 53.74 53.48 53.35 53.33 53.58 54.00 53.75 52.91 52.65 52.88 52.70 51.87 51.87 51.45 51.16 52.19 52.52 52.75
50.32 50.62 51.42 51.61 51.32 50.75 50.76 49.99 49.61 49.16 48.61 48.33 47.84 47.41 47.76 48.41 50.12 49.37 49.51 51.85 52.21 50.47 51.18 50.56 49.88 50.46 50.85 50.71 50.79 51.34 51.75 52.49 52.41 52.07 52.21 52.27 52.23 52.11 51.61 51.65 51.83 51.88 51.99 52.19
49.23 50.09 50.52 51.14 50.88 49.74 48.28 48.74 49.15 48.86 48.76 48.69 48.31 48.35 48.06 49.05 49.86 51.01 51.10 49.07 47.54 47.61 49.35 49.38 49.03 48.71 49.83 50.20 50.09 49.83 50.64 51.56 50.27 51.20 51.15 47.23 50.52 50.58 51.16 51.94 51.89 52.61 52.13 50.51
49.59 50.30 50.36 50.32 50.29 49.61 48.58 50.03 49.12 47.91 48.00 47.99 48.15 48.81 49.16 49.34 49.46 48.73 49.15 48.98 46.96 47.47 48.46 47.50 47.58 47.56 49.08 49.48 48.97 48.15 48.64 48.62 47.95 50.88 50.99 51.06 50.85 51.06 51.59 51.93 51.83 51.80 52.07 52.31
48.71 48.78 49.55 49.46 50.36 50.24 49.56 50.29 48.19 47.80 47.88 47.73 48.05 48.21 48.59 48.73 48.96 48.71 48.85 48.17 48.41 47.43 48.15 48.36 48.49 48.43 48.29 48.29 48.13 48.00 48.18 48.29 48.40 48.81 48.96 50.08 50.26 50.46 50.40 50.42 50.35 50.49 50.01 49.30
49.03 45.83 50.09 49.44 49.99 50.48 51.34 49.16 48.58 48.57 48.74 48.57 48.31 49.16 49.07 49.08 48.81 48.45 47.18 48.96 49.02 49.14 49.00 49.22 49.06 48.24 48.37 48.53 48.60 48.59 48.46 48.12 44.01 47.80 49.01 49.32 49.53 49.65 49.86 49.75 49.69 49.22 46.89 45.46
MSLP
1007.47 1006.80 1006.01 1005.64 1005.93 1006.64 1007.06 1007.57 1008.28 1008.32 1008.40 1007.20 1006.76 1006.61 1007.04 1007.62 1008.35 1008.59 1008.83 1009.06 1008.98 1009.03 1009.27 1009.54 1010.09 1010.26 1010.66 1011.22 1011.62 1012.05 1012.55 1012.92 1013.05 1013.40 1013.69 1014.05 1014.31 1014.31 1014.57 1014.86 1014.92 1015.18 1015.61 1015.90
1008.19 1007.26 1006.51 1006.02 1006.02 1006.35 1006.99 1007.31 1007.70 1007.90 1007.79 1006.43 1006.41 1006.50 1006.75 1006.63 1007.72 1008.21 1008.44 1008.66 1008.64 1008.66 1009.02 1009.48 1009.63 1009.88 1010.33 1010.98 1011.49 1011.98 1012.37 1012.57 1012.68 1013.07 1013.68 1013.92 1014.23 1014.47 1014.45 1014.82 1015.03 1015.36 1015.22 1015.62
1009.36 1008.26 1007.37 1007.12 1006.52 1006.55 1006.97 1007.65 1008.07 1008.37 1007.59 1007.10 1006.80 1006.88 1006.53 1006.39 1006.72 1007.01 1007.19 1007.35 1007.56 1007.83 1008.08 1008.55 1008.88 1009.23 1009.93 1010.47 1011.00 1011.52 1011.77 1012.19 1012.38 1012.64 1013.03 1013.41 1013.92 1014.01 1014.26 1014.60 1014.60 1014.76 1015.44 1015.61
1010.51 1009.39 1008.65 1007.47 1007.16 1007.42 1007.96 1009.51 1009.64 1009.20 1008.98 1008.53 1007.97 1007.12 1006.68 1006.00 1005.73 1005.76 1006.02 1006.20 1006.52 1007.07 1007.55 1008.32 1008.52 1008.97 1009.24 1010.19 1010.61 1011.13 1011.43 1011.85 1012.04 1012.54 1012.76 1012.94 1013.34 1013.63 1013.96 1014.07 1014.13 1014.25 1014.81 1015.39
1011.31 1010.60 1009.57 1008.65 1008.86 1009.22 1009.70 1010.97 1011.14 1010.80 1009.98 1009.20 1007.96 1007.26 1006.28 1006.44 1006.52 1006.27 1006.03 1006.02 1006.44 1007.11 1007.82 1008.31 1008.58 1008.77 1009.46 1009.64 1009.93 1010.79 1011.03 1011.30 1011.79 1012.25 1012.44 1012.73 1013.03 1013.22 1013.54 1013.88 1014.11 1014.18 1014.60 1015.05
1012.20 1011.54 1010.95 1010.84 1010.18 1010.45 1010.70 1011.51 1011.74 1011.69 1011.09 1010.16 1008.71 1008.76 1007.58 1007.40 1006.86 1006.15 1006.10 1005.98 1006.58 1007.46 1008.08 1008.60 1008.82 1009.09 1009.19 1009.85 1010.29 1010.78 1010.99 1011.23 1011.65 1012.18 1012.47 1012.65 1012.67 1013.08 1013.45 1013.55 1013.88 1014.12 1014.34 1014.70
1012.52 1012.03 1011.80 1011.53 1010.96 1010.75 1011.84 1012.78 1012.18 1012.00 1011.47 1010.75 1010.41 1009.74 1008.65 1008.02 1007.48 1007.16 1006.95 1006.96 1006.70 1007.15 1007.79 1007.90 1008.49 1009.24 1010.04 1010.37 1010.58 1010.74 1010.95 1011.30 1011.75 1012.22 1012.58 1012.57 1013.06 1013.08 1013.35 1013.52 1013.63 1014.17 1014.43 1014.54
1013.46 1012.88 1012.61 1011.73 1011.56 1012.21 1013.10 1012.90 1012.57 1011.90 1011.36 1010.83 1010.26 1009.48 1008.99 1008.41 1007.94 1007.57 1007.64 1007.73 1007.71 1007.96 1008.37 1008.58 1009.10 1009.46 1010.55 1010.95 1010.96 1011.11 1011.15 1011.33 1011.90 1012.41 1012.63 1012.76 1013.26 1013.63 1013.83 1014.09 1013.64 1013.97 1014.25 1014.45
1014.31 1013.51 1012.90 1012.92 1012.98 1013.10 1013.36 1013.25 1012.69 1012.16 1011.51 1011.06 1010.30 1009.19 1008.81 1008.70 1008.27 1007.82 1007.81 1008.25 1007.96 1008.32 1007.64 1009.77 1010.05 1009.26 1011.03 1011.82 1011.44 1011.66 1011.53 1011.78 1012.20 1012.54 1012.66 1012.87 1013.22 1014.04 1014.44 1014.34 1014.40 1014.00 1014.16 1014.29
1014.33 1013.41 1013.38 1013.19 1013.18 1013.44 1013.49 1013.16 1012.62 1012.22 1011.66 1011.13 1010.33 1009.33 1008.36 1007.83 1007.89 1008.04 1008.13 1007.56 1007.34 1009.05 1008.49 1010.56 1010.37 1010.59 1011.10 1011.77 1011.75 1011.93 1011.99 1012.09 1011.82 1012.32 1012.94 1013.45 1013.74 1014.28 1014.47 1014.50 1014.39 1014.44 1014.16 1014.14
1014.04 1013.45 1013.37 1013.35 1013.37 1013.59 1013.43 1012.80 1012.21 1011.80 1011.48 1010.84 1010.26 1009.36 1008.39 1007.55 1007.44 1007.43 1007.88 1007.56 1008.17 1009.33 1009.78 1010.79 1010.68 1010.77 1011.53 1011.99 1011.94 1012.11 1012.01 1011.48 1011.52 1012.17 1013.04 1013.78 1014.14 1014.22 1014.13 1014.23 1014.61 1014.66 1014.57 1014.39
1014.05 1013.58 1013.69 1013.47 1013.44 1013.39 1013.17 1012.65 1012.20 1011.74 1010.99 1010.32 1009.64 1008.92 1008.26 1007.59 1007.54 1007.50 1007.99 1008.10 1007.76 1008.18 1009.15 1010.22 1010.58 1011.51 1011.69 1012.00 1012.12 1012.27 1011.85 1011.56 1011.90 1012.59 1013.34 1014.01 1014.40 1014.15 1014.22 1014.04 1014.02 1014.22 1014.24 1014.50
1013.43 1013.53 1013.51 1013.04 1013.09 1012.87 1012.71 1012.27 1011.95 1011.66 1011.25 1010.99 1010.37 1009.37 1008.51 1007.94 1007.64 1007.47 1007.89 1007.90 1008.36 1008.66 1008.85 1010.43 1010.64 1010.57 1011.23 1011.31 1012.04 1012.07 1011.57 1011.90 1012.33 1013.10 1013.64 1014.08 1014.29 1014.36 1013.70 1013.64 1013.91 1013.92 1014.28 1014.29
1013.26 1013.38 1013.19 1012.83 1012.94 1012.76 1012.55 1012.12 1011.88 1011.49 1011.29 1010.97 1010.85 1010.46 1009.86 1009.12 1008.37 1008.26 1007.88 1008.06 1008.48 1009.27 1009.09 1009.48 1012.02 1011.10 1011.18 1011.52 1011.84 1011.75 1011.62 1012.06 1012.63 1013.11 1013.31 1013.53 1013.74 1014.10 1014.03 1013.51 1013.39 1013.44 1013.32 1013.94
1012.98 1013.03 1012.78 1012.85 1012.79 1012.72 1012.37 1011.96 1011.67 1011.22 1011.23 1011.25 1011.23 1011.06 1010.46 1010.17 1009.93 1009.31 1009.99 1010.34 1010.06 1010.23 1010.81 1011.18 1010.91 1010.71 1011.07 1011.36 1011.41 1011.83 1012.04 1012.32 1012.79 1012.95 1013.22 1013.37 1013.79 1013.63 1013.36 1013.38 1013.17 1013.26 1013.36 1013.43
1012.69 1012.60 1012.69 1012.90 1012.82 1012.56 1012.22 1011.90 1011.86 1011.66 1011.61 1011.69 1011.58 1011.50 1011.34 1010.97 1010.94 1010.90 1010.69 1010.87 1011.83 1012.28 1012.17 1011.54 1011.67 1011.86 1011.29 1011.29 1011.60 1011.98 1012.09 1012.13 1012.53 1012.74 1012.65 1012.83 1013.25 1013.28 1012.95 1013.02 1013.13 1013.13 1013.01 1012.83
1012.82 1012.68 1012.69 1012.80 1012.65 1012.47 1012.16 1012.00 1011.93 1011.90 1012.06 1011.91 1011.92 1011.87 1011.82 1011.83 1011.84 1012.20 1012.20 1012.87 1013.11 1013.10 1012.63 1012.74 1012.81 1012.25 1011.75 1011.88 1011.70 1011.96 1012.26 1012.37 1012.38 1012.28 1012.27 1012.45 1012.64 1012.70 1012.41 1012.51 1012.25 1012.55 1012.34 1011.82
1012.65 1012.64 1012.68 1012.67 1012.72 1012.64 1012.60 1012.71 1012.56 1012.49 1012.61 1012.64 1012.64 1012.73 1012.67 1012.77 1013.05 1013.13 1013.37 1013.15 1013.01 1013.16 1012.94 1012.90 1012.54 1012.38 1012.34 1012.33 1012.27 1012.50 1012.82 1012.60 1012.11 1012.00 1011.90 1012.18 1012.20 1012.11 1012.25 1012.05 1012.09 1011.67 1011.74 1011.32
1012.63 1012.82 1012.83 1012.86 1012.92 1013.06 1013.18 1012.92 1013.23 1013.18 1013.24 1013.07 1013.27 1013.56 1013.72 1013.81 1013.81 1013.99 1013.94 1013.73 1013.51 1013.42 1013.61 1013.60 1013.31 1013.24 1012.91 1012.92 1012.75 1012.44 1012.24 1012.40 1012.10 1011.68 1011.70 1011.91 1011.94 1011.74 1011.68 1011.67 1011.70 1011.70 1011.69 1011.56
1013.53 1013.23 1012.98 1013.17 1013.32 1013.56 1013.76 1013.85 1014.02 1014.12 1014.13 1014.03 1014.14 1014.29 1014.27 1014.34 1014.39 1014.38 1014.33 1014.19 1014.31 1014.36 1013.98 1013.66 1013.28 1013.23 1013.25 1012.99 1012.80 1012.64 1012.38 1011.80 1011.70 1011.71 1011.70 1011.84 1011.93 1011.81 1012.06 1011.96 1011.93 1011.87 1011.91 1011.72
1014.04 1014.18 1013.79 1013.61 1013.76 1013.98 1014.18 1014.39 1014.55 1014.54 1014.67 1014.71 1014.90 1015.11 1015.07 1015.03 1014.99 1014.83 1014.68 1014.47 1014.65 1014.47 1014.36 1014.12 1013.82 1013.68 1013.45 1012.78 1012.52 1012.62 1012.20 1011.89 1011.93 1011.97 1011.93 1011.78 1011.71 1011.76 1012.11 1012.12 1011.92 1012.25 1012.16 1011.98
1014.19 1014.80 1014.68 1014.44 1014.46 1014.51 1014.59 1014.83 1015.09 1015.20 1015.31 1015.35 1015.45 1015.53 1015.51 1015.48 1015.55 1015.38 1015.15 1014.85 1014.91 1014.94 1014.80 1014.67 1014.44 1014.05 1013.45 1012.98 1012.86 1012.77 1012.56 1012.63 1013.04 1012.96 1012.54 1012.26 1012.17 1012.30 1012.62 1012.72 1012.66 1012.56 1012.65 1012.60
1015.19 1015.16 1015.07 1015.04 1015.06 1015.14 1015.29 1015.51 1015.56 1015.61 1015.70 1015.78 1016.04 1016.05 1016.10 1016.13 1015.98 1015.82 1015.61 1015.57 1015.37 1015.34 1015.26 1015.17 1014.79 1014.42 1014.13 1013.91 1013.87 1013.77 1013.01 1013.30 1013.62 1013.79 1013.58 1013.32 1013.37 1013.33 1013.44 1013.27 1013.42 1013.32 1013.17 1013.06
1015.37 1015.38 1015.40 1015.44 1015.57 1015.69 1015.84 1015.93 1015.95 1015.92 1016.12 1016.39 1016.49 1016.44 1016.20 1016.24 1016.27 1016.00 1015.77 1015.68 1015.79 1015.80 1015.69 1015.74 1015.34 1014.86 1014.68 1014.17 1015.28 1014.88 1014.36 1015.05 1015.26 1014.92 1014.63 1014.34 1014.22 1014.00 1013.92 1013.86 1013.77 1013.79 1013.84 1013.76
1015.67 1015.53 1015.51 1015.75 1015.98 1016.09 1016.22 1016.36 1016.42 1016.66 1016.84 1016.95 1016.93 1016.96 1016.78 1016.93 1016.91 1017.05 1016.23 1016.01 1016.11 1016.39 1016.12 1015.79 1015.28 1015.25 1015.79 1016.20 1015.56 1015.17 1015.37 1015.94 1016.07 1015.60 1015.61 1015.12 1015.12 1014.85 1014.59 1014.64 1014.66 1014.71 1014.42 1014.18
1015.65 1015.62 1015.61 1015.65 1015.78 1016.06 1016.30 1016.45 1016.65 1016.76 1016.94 1017.05 1017.02 1016.95 1016.80 1016.78 1016.64 1016.47 1016.13 1016.03 1016.66 1016.71 1016.47 1016.46 1016.42 1016.84 1016.20 1016.09 1016.65 1016.14 1015.98 1016.33 1016.24 1016.14 1016.04 1015.74 1015.38 1015.51 1015.62 1015.63 1015.54 1014.87 1014.72 1014.54
1015.57 1015.62 1015.58 1015.67 1015.88 1015.97 1016.05 1016.05 1016.34 1016.33 1016.40 1016.55 1016.80 1016.86 1016.83 1016.82 1016.76 1016.87 1016.83 1017.20 1016.97 1016.27 1016.65 1016.72 1016.63 1017.15 1017.12 1016.82 1016.73 1016.62 1016.57 1016.53 1016.55 1016.42 1016.26 1016.10 1016.27 1016.16 1015.97 1015.76 1015.44 1015.30 1015.03 1014.81
Wind_Speed
3 4 2 2 4 4 3 6 6 5 8 9 10 14 10 3 4 6 5 5 6 6 7 7 6 6 6 5 6 6 6 6 6 4 4 4 4 4 4 4 5 5 4 3
3 7 6 1 3 4 2 3 2 1 6 8 6 4 8 11 8 6 7 8 8 8 7 8 8 8 8 7 7 6 6 6 6 6 5 5 3 2 3 4 3 1 5 5
3 3 4 5 3 3 2 2 6 3 7 6 5 7 11 9 9 10 9 10 10 10 11 10 11 10 9 8 6 6 6 5 5 6 6 5 5 5 6 6 4 4 3 3
3 2 2 6 3 3 2 12 13 10 11 10 9 7 8 8 11 12 10 10 7 7 7 8 6 6 8 6 6 6 5 5 5 5 6 6 7 7 5 5 7 5 6 4
3 3 4 3 6 6 5 2 9 9 13 10 8 7 6 4 4 4 5 6 4 4 6 6 8 7 6 7 6 6 6 5 5 5 5 7 7 6 5 4 4 4 3 6
3 3 5 1 7 6 4 3 8 7 9 10 7 5 4 14 9 7 8 5 6 7 4 6 6 6 8 5 6 5 5 5 4 4 5 5 6 5 3 3 2 3 4 6
3 3 1 4 13 8 4 5 9 5 5 6 4 4 12 10 8 7 5 3 7 9 8 7 6 6 5 5 5 5 6 6 5 4 4 4 4 3 3 3 4 4 4 6
1 2 2 6 4 4 4 5 7 9 5 4 6 8 5 7 7 6 7 8 3 7 4 5 6 7 5 5 4 5 6 7 5 4 3 4 3 1 1 3 4 4 4 3
3 5 3 2 1 1 0 8 8 9 9 9 8 5 4 2 5 2 8 9 11 6 12 4 2 9 7 1 4 5 6 7 6 5 5 5 4 2 1 2 3 3 4 3
1 3 4 4 2 2 3 9 10 11 10 8 9 10 9 4 3 2 4 11 15 10 8 4 5 5 5 5 4 5 8 9 6 5 4 3 3 1 1 3 2 4 4 5
3 5 2 1 4 3 5 9 10 11 9 11 11 12 12 7 6 8 10 13 17 16 9 4 3 3 2 3 4 4 4 5 6 4 2 1 1 2 3 3 3 3 3 3
5 4 3 5 3 5 5 6 8 9 12 13 9 11 10 10 5 6 8 2 10 12 11 7 7 6 5 4 3 4 3 5 3 3 1 2 3 3 7 8 7 7 7 5
4 1 5 8 5 4 4 5 5 9 11 9 11 7 4 3 5 4 6 7 8 10 12 8 6 8 5 5 4 3 5 4 3 1 2 3 3 4 2 1 8 8 8 8
2 2 5 3 2 3 6 9 6 6 5 8 8 9 11 5 12 14 14 7 7 7 8 9 4 4 4 4 3 2 3 2 2 3 3 2 3 4 4 3 3 5 5 8
7 7 7 4 6 5 6 7 8 6 7 8 8 7 8 8 9 12 10 10 10 8 4 4 5 7 3 5 4 2 1 1 2 2 2 3 4 4 3 4 4 6 5 4
5 6 5 5 7 7 7 6 4 4 5 5 5 6 6 6 6 9 11 10 8 6 5 7 9 6 7 6 2 2 3 6 5 4 3 4 4 5 4 4 5 5 5 6
4 6 3 2 2 3 4 5 4 2 4 5 5 6 8 7 10 10 10 8 7 7 7 6 4 7 8 7 6 4 3 3 4 4 5 5 6 6 5 5 5 6 7 7
1 3 3 3 3 5 6 7 8 10 8 8 8 8 9 9 8 6 6 5 5 6 8 6 6 6 6 6 5 3 3 3 3 2 3 4 6 5 6 6 6 6 6 5
2 5 4 3 4 6 4 7 7 7 5 6 7 7 6 5 4 4 3 5 6 6 8 9 12 8 5 6 6 2 1 4 4 3 3 4 5 5 6 6 7 6 5 5
7 2 7 6 7 6 7 6 4 4 3 4 5 4 6 6 4 5 5 8 7 4 7 7 7 6 7 7 8 4 4 3 4 5 5 5 5 5 4 4 4 4 5 5
8 8 4 6 7 6 6 4 4 6 5 5 5 4 5 4 5 4 6 6 7 7 7 9 7 6 6 8 6 5 5 5 5 5 5 4 4 5 5 5 6 6 5 6
7 5 5 3 4 5 5 5 5 4 5 5 5 4 5 6 4 4 4 5 3 7 6 6 5 9 9 12 8 7 7 7 6 5 6 6 7 7 8 7 7 7 7 7
1 0 2 1 2 4 5 4 4 5 5 5 4 5 6 4 2 3 3 6 5 7 5 5 11 14 15 9 7 7 9 8 8 7 7 7 6 6 6 6 6 5 5 6
2 1 1 3 5 4 5 3 4 5 5 4 4 3 2 2 3 4 4 5 7 6 6 7 9 14 11 8 7 6 8 8 7 7 6 7 6 6 6 5 6 6 6 5
1 1 3 5 4 3 5 4 4 4 4 3 2 2 3 2 2 1 3 4 8 5 5 9 13 12 7 4 6 7 5 5 5 5 6 7 7 7 7 6 6 5 5 5
2 1 2 3 3 4 4 3 3 3 3 3 2 1 2 2 2 3 4 6 5 4 4 4 5 4 5 6 5 6 6 5 5 5 5 5 6 6 5 5 5 5 5 5
1 1 2 3 2 3 3 3 3 3 3 3 3 2 2 2 3 2 2 1 1 3 3 3 4 4 2 3 3 3 2 2 1 2 2 3 3 2 3 4 4 4 4 5
Wind_Direction
260 261 256 151 165 181 175 162 138 235 213 260 247 224 217 225 159 159 231 240 216 206 199 180 180 162 153 171 166 164 170 173 176 168 168 172 186 180 169 174 165 156 161 177
3 344 355 311 175 192 254 117 344 334 270 227 274 263 229 220 164 173 198 208 221 216 186 188 177 176 167 171 168 165 171 179 155 158 184 187 172 151 149 156 159 210 176 177
256 335 15 343 286 195 144 142 140 183 241 333 285 245 250 234 184 196 196 201 204 200 189 182 183 169 172 173 156 173 163 169 170 178 176 174 177 176 181 185 176 169 238 219
235 343 196 235 21 71 100 41 2 328 336 323 284 278 261 210 198 202 200 201 206 188 155 174 155 157 142 160 165 160 159 174 178 186 188 184 181 187 196 195 196 187 177 192
160 197 279 52 20 24 38 84 12 321 330 315 322 320 323 275 287 262 223 215 216 150 152 158 162 150 153 158 152 167 173 178 196 199 187 172 178 172 184 195 209 160 169 183
133 160 213 293 305 326 282 271 1 340 341 337 347 7 291 337 316 250 230 208 146 124 111 139 155 158 144 152 146 174 170 169 169 167 161 169 156 164 180 179 215 203 175 174
179 206 291 279 307 311 158 264 314 300 305 350 356 233 298 320 343 4 15 62 123 144 170 165 134 126 117 136 159 154 131 128 133 138 152 143 149 147 173 187 177 205 174 194
77 166 198 349 348 90 230 307 274 288 273 276 252 276 320 331 1 11 28 28 21 120 112 92 105 115 122 136 131 125 127 113 113 128 124 104 109 86 181 208 171 196 194 203
179 204 233 288 111 265 57 267 289 306 292 300 286 269 282 324 355 4 91 71 49 314 116 62 328 100 127 153 118 121 108 104 118 98 84 72 77 27 247 202 231 198 195 209
40 245 243 220 253 230 256 260 277 280 286 299 294 292 284 220 150 104 82 87 86 352 43 71 52 81 129 172 152 139 143 150 125 107 86 87 96 140 286 305 267 233 225 225
275 303 7 234 241 281 298 291 274 273 280 273 282 279 270 269 230 166 174 145 147 164 171 177 91 109 175 223 185 160 159 124 106 95 124 163 212 206 191 214 233 274 290 312
220 240 202 246 255 292 310 306 310 312 305 300 277 263 264 269 250 217 174 200 151 143 135 147 147 176 178 183 174 185 129 81 87 105 171 216 250 273 242 240 208 223 248 224
223 163 229 265 273 263 292 301 321 330 323 314 333 350 340 318 343 227 122 124 145 153 143 150 173 159 166 153 171 164 105 108 91 157 228 236 252 258 267 264 240 255 250 245
244 232 286 229 261 287 292 297 305 296 323 345 342 340 359 27 39 48 30 20 66 72 91 108 202 123 141 146 153 119 97 120 156 203 215 231 241 262 274 277 307 309 205 226
256 220 248 316 318 290 280 296 327 347 0 1 353 16 22 13 39 73 66 56 53 57 90 139 107 53 3 182 163 175 166 198 227 250 259 266 276 269 264 282 281 282 292 221
278 267 282 265 281 298 281 290 310 348 9 13 11 21 43 43 36 59 68 69 79 59 8 49 55 28 52 55 102 215 236 218 224 243 250 253 258 269 283 284 282 275 278 277
287 329 336 311 281 12 9 357 354 17 34 40 40 33 47 49 66 69 78 72 77 73 68 62 38 18 36 40 46 32 5 339 258 250 249 251 252 255 255 259 256 267 270 267
164 83 80 109 107 64 50 33 52 59 61 58 67 62 57 59 61 50 24 28 57 48 42 19 16 21 21 20 33 17 342 319 335 314 283 267 259 250 254 257 266 264 275 291
187 106 110 95 85 88 78 78 53 75 68 81 71 63 68 59 58 74 57 54 41 30 4 352 356 354 350 336 334 297 315 314 316 319 314 295 287 268 252 250 264 279 303 310
13 41 106 89 88 89 91 75 98 78 59 75 84 64 57 42 48 65 46 45 19 351 343 358 7 351 334 323 331 320 319 330 335 327 324 322 314 313 299 306 309 322 338 344
43 355 46 100 108 107 99 95 87 77 56 57 79 86 83 46 33 40 56 50 10 4 5 360 359 352 351 3 18 1 358 6 5 359 350 353 13 33 36 33 41 27 17 21
50 16 342 39 114 100 94 102 103 98 81 72 69 70 73 64 72 69 42 39 357 9 16 10 355 6 26 32 32 31 27 25 28 25 32 38 51 57 53 48 47 47 41 38
101 24 348 292 131 108 96 88 86 86 73 62 65 85 83 81 45 62 60 25 31 25 28 14 26 41 46 47 33 28 37 39 36 35 40 49 53 58 61 59 54 50 45 40
47 319 173 125 113 102 98 61 79 79 84 80 62 38 85 83 49 27 46 43 42 45 44 25 37 51 50 51 40 37 41 31 36 41 44 51 54 56 57 51 52 44 37 36
118 73 120 138 157 146 134 143 103 97 99 88 73 40 65 57 101 324 57 51 39 34 37 26 40 42 51 60 49 50 57 40 16 34 37 46 46 46 46 42 36 23 18 5
67 105 110 132 170 154 157 161 139 142 133 113 76 56 61 43 39 33 35 37 36 30 41 26 38 31 37 40 44 59 57 39 37 37 30 39 40 33 25 17 4 11 8 8
45 133 129 100 110 155 178 160 152 155 139 119 122 169 132 114 96 75 63 84 87 67 40 26 31 16 8 30 37 40 48 55 21 9 14 16 356 351 352 352 357 2 22 22